Weather History for Storm Lake, IA

Change the Weather History Date:

Wednesday, May 1, 2013

  Actual Average Record
Temperature  
Mean Temperature 41 °F -  
Max Temperature 50 °F 65 °F 89 °F (2001)
Min Temperature 32 °F 45 °F 30 °F (1997)
Degree Days  
Heating Degree Days 24    
Moisture  
Dew Point 36 °F    
Average Humidity 96    
Maximum Humidity 100    
Minimum Humidity 81    
Precipitation  
Precipitation 0.23 in - - ()
Sea Level Pressure  
Sea Level Pressure 30.22 in    
Wind  
Wind Speed 20 mph (NNE)    
Max Wind Speed 29 mph    
Max Gust Speed 48 mph    
Visibility 4 miles    
Events Fog , Rain , Snow    
Averages and records for this station are not official NWS values.
T = Trace of Precipitation, MM = Missing Value Source: NWS Daily Summary

Daily Weather History Graph

Daily Weather History Graph

Search for Another Location

Airport:

Trip Planner

Search our weather history database for the weather conditions in past years. The results will help you decide how hot, cold, wet, or windy it might be!

Date:

Astronomy

May. 01, 2013 Rise Set
Actual Time 6:15 AM CDT 8:21 PM CDT
Civil Twilight 5:44 AM CDT 8:52 PM CDT
Nautical Twilight 5:06 AM CDT 9:30 PM CDT
Astronomical Twilight 4:25 AM CDT 10:12 PM CDT
Moon 1:31 AM CDT (5/1) 11:54 AM CDT (5/1)
Length of Visible Light 15h 07m
Length of Day
14h 06m
Waning Gibbous, 59% of the Moon is Illuminated
May 1
Waning Gibbous
May 2
Last Quarter
May 9
New
May 17
First Quarter
May 24
Full

Hourly Weather History & Observations

Time (CDT) Temp. Windchill Dew Point Humidity Pressure Visibility Wind Dir Wind Speed Gust Speed Precip Events Conditions
12:15 AM 50.0 °F - 44.6 °F 82% 29.95 in 5.0 mi NNE 13.8 mph - N/A   Haze
12:35 AM 50.0 °F - 44.6 °F 82% 29.98 in 5.0 mi NNE 17.3 mph - N/A Rain Light Rain
12:55 AM 48.2 °F - 44.6 °F 87% 30.01 in 3.0 mi NNE 11.5 mph - 0.06 in Rain Heavy Rain
1:15 AM 48.2 °F - 44.6 °F 87% 29.98 in 6.0 mi NNE 20.7 mph - N/A Rain Light Rain
1:35 AM 48.2 °F - 44.6 °F 87% 30.06 in 4.0 mi NNW 15.0 mph 23.0 mph N/A Rain Heavy Rain
1:55 AM 46.4 °F 39.5 °F 42.8 °F 87% 30.05 in 3.0 mi North 17.3 mph 27.6 mph 0.06 in Rain Heavy Rain
2:15 AM 46.4 °F 38.5 °F 42.8 °F 87% 30.01 in 8.0 mi NNE 21.9 mph 29.9 mph N/A Rain Light Rain
2:35 AM 46.4 °F 38.7 °F 42.8 °F 87% 30.01 in 10.0 mi North 20.7 mph 27.6 mph N/A Rain Light Rain
2:55 AM 46.4 °F 37.7 °F 41.0 °F 81% 30.03 in 10.0 mi North 26.5 mph - 0.02 in   Light Drizzle
3:15 AM 44.6 °F 35.5 °F 41.0 °F 87% 30.06 in 10.0 mi North 25.3 mph 33.4 mph N/A   Light Drizzle
3:35 AM 44.6 °F 36.1 °F 41.0 °F 87% 30.05 in 2.5 mi NNE 21.9 mph 27.6 mph N/A   Overcast
3:55 AM 44.6 °F 36.4 °F 41.0 °F 87% 30.09 in 10.0 mi North 20.7 mph 29.9 mph 0.01 in   Light Drizzle
4:15 AM 44.6 °F 35.5 °F 41.0 °F 87% 30.03 in 9.0 mi NNE 25.3 mph 32.2 mph N/A   Overcast
4:35 AM 44.6 °F 36.4 °F 42.8 °F 93% 30.08 in 10.0 mi North 20.7 mph 27.6 mph N/A   Overcast
5:15 AM 42.8 °F 35.1 °F 42.8 °F 100% 30.10 in 10.0 mi North 16.1 mph - N/A   Overcast
5:35 AM 42.8 °F 32.9 °F 41.0 °F 93% 30.09 in 10.0 mi NNE 26.5 mph - N/A   Overcast
5:55 AM 42.8 °F 34.0 °F 41.0 °F 93% 30.12 in 10.0 mi North 20.7 mph - N/A   Overcast
6:15 AM 42.8 °F 33.8 °F 41.0 °F 93% 30.13 in 10.0 mi North 21.9 mph 28.8 mph N/A   Overcast
6:35 AM 41.0 °F 31.6 °F 41.0 °F 100% 30.14 in 8.0 mi NNE 20.7 mph 28.8 mph N/A   Overcast
6:55 AM 41.0 °F 30.9 °F 39.2 °F 93% 30.16 in 4.0 mi NNE 24.2 mph - N/A   Overcast
7:15 AM 39.2 °F 29.3 °F 39.2 °F 100% 30.17 in 3.0 mi NNE 20.7 mph 26.5 mph N/A   Overcast
7:35 AM 37.4 °F 25.6 °F 37.4 °F 100% 30.18 in 1.2 mi North 26.5 mph 39.1 mph N/A   Overcast
7:55 AM 37.4 °F 26.1 °F 35.6 °F 93% 30.19 in 1.2 mi North 24.2 mph - 0.01 in Snow Light Snow
8:15 AM 35.6 °F 24.5 °F 35.6 °F 100% 30.21 in 1.0 mi North 20.7 mph 33.4 mph N/A Snow Light Snow
8:35 AM 35.6 °F 24.5 °F 35.6 °F 100% 30.20 in 1.2 mi NNE 20.7 mph 28.8 mph N/A Snow Light Snow
8:55 AM 35.6 °F 23.4 °F 35.6 °F 100% 30.20 in 1.8 mi North 25.3 mph - N/A Snow Light Snow
9:15 AM 35.6 °F 23.2 °F 35.6 °F 100% 30.20 in 2.5 mi NNE 26.5 mph - N/A Snow Light Snow
9:35 AM 35.6 °F 25.2 °F 35.6 °F 100% 30.23 in 4.0 mi North 18.4 mph 25.3 mph N/A   Overcast
10:15 AM 35.6 °F 24.8 °F 35.6 °F 100% 30.22 in 1.5 mi North 19.6 mph 27.6 mph N/A Snow Light Snow
10:35 AM 35.6 °F 24.0 °F 35.6 °F 100% 30.23 in 2.0 mi North 23.0 mph 28.8 mph N/A Snow Light Snow
10:55 AM 35.6 °F 25.5 °F 35.6 °F 100% 30.25 in 2.0 mi North 17.3 mph 25.3 mph N/A Snow Light Snow
11:15 AM 35.6 °F 24.2 °F 35.6 °F 100% 30.22 in 2.5 mi NNE 21.9 mph 27.6 mph N/A Snow Light Snow
11:35 AM 35.6 °F 25.2 °F 35.6 °F 100% 30.22 in 3.0 mi NE 18.4 mph 25.3 mph N/A Snow Light Snow
11:55 AM 35.6 °F 25.5 °F 35.6 °F 100% 30.26 in 3.0 mi North 17.3 mph - N/A Snow Light Snow
12:15 PM 35.6 °F 25.2 °F 35.6 °F 100% 30.25 in 2.5 mi North 18.4 mph 25.3 mph N/A   Overcast
12:35 PM 33.8 °F 23.5 °F 33.8 °F 100% 30.26 in 2.0 mi North 16.1 mph 26.5 mph N/A   Overcast
12:55 PM 33.8 °F 22.2 °F 33.8 °F 100% 30.24 in 2.5 mi North 20.7 mph 27.6 mph N/A Rain Rain
1:15 PM 33.8 °F 22.2 °F 33.8 °F 100% 30.26 in 3.0 mi North 20.7 mph 26.5 mph N/A   Overcast
1:35 PM 33.8 °F 22.2 °F 33.8 °F 100% 30.30 in 1.8 mi North 20.7 mph - N/A Rain Heavy Rain
1:55 PM 32.0 °F 18.9 °F 32.0 °F 100% 30.25 in 0.8 mi NNE 24.2 mph 33.4 mph N/A Snow Light Snow
2:15 PM 32.0 °F 19.5 °F 32.0 °F 100% 30.28 in 2.0 mi North 21.9 mph - N/A Snow Light Snow
2:35 PM 32.0 °F 19.5 °F 32.0 °F 100% 30.30 in 0.2 mi North 21.9 mph 29.9 mph N/A Snow Light Snow
2:55 PM - - - N/A% 30.32 in 0.2 mi North 21.9 mph - N/A   Unknown
3:15 PM 32.0 °F 19.8 °F 32.0 °F 100% 30.31 in 0.5 mi North 20.7 mph - N/A Snow Light Snow
3:35 PM 32.0 °F 20.1 °F 32.0 °F 100% 30.32 in 0.5 mi North 19.6 mph 26.5 mph N/A Snow Light Snow
4:15 PM 32.0 °F 18.1 °F 32.0 °F 100% 30.32 in 0.5 mi North 27.6 mph 38.0 mph N/A Snow Light Snow
4:35 PM 32.0 °F 18.6 °F 32.0 °F 100% 30.31 in 0.2 mi North 25.3 mph 35.7 mph N/A Snow Light Snow
5:15 PM 32.0 °F 19.8 °F 32.0 °F 100% 30.36 in 0.2 mi North 20.7 mph 28.8 mph N/A Snow Snow
5:35 PM 32.0 °F 20.5 °F 32.0 °F 100% 30.36 in 0.2 mi North 18.4 mph 28.8 mph N/A Snow Snow
6:15 PM 32.0 °F 20.5 °F 32.0 °F 100% 30.36 in 0.2 mi North 18.4 mph - N/A Snow Light Snow
6:35 PM 32.0 °F 19.5 °F 32.0 °F 100% 30.35 in 0.2 mi NNE 21.9 mph 48.3 mph N/A Fog Fog
6:55 PM 32.0 °F 18.1 °F 32.0 °F 100% 30.37 in 0.2 mi North 27.6 mph 35.7 mph 0.02 in Fog Fog
7:15 PM 32.0 °F 18.9 °F 32.0 °F 100% 30.36 in 0.2 mi North 24.2 mph 29.9 mph N/A Fog Fog
7:35 PM 32.0 °F 17.9 °F 32.0 °F 100% 30.35 in 0.5 mi North 28.8 mph 35.7 mph N/A Fog Fog
7:55 PM 32.0 °F 18.9 °F 32.0 °F 100% 30.37 in 0.5 mi North 24.2 mph 33.4 mph 0.02 in   Overcast
8:35 PM 33.8 °F - 33.8 °F 100% 30.38 in 1.0 mi North - - N/A   Overcast
8:55 PM 33.8 °F 21.6 °F 33.8 °F 100% 30.38 in 6.0 mi North 23.0 mph 29.9 mph N/A   Light Drizzle
9:35 PM 32.0 °F 21.6 °F 32.0 °F 100% 30.39 in 4.0 mi North 15.0 mph 21.9 mph N/A Rain Light Rain
9:55 PM 33.8 °F - 33.8 °F 100% 30.40 in 1.5 mi North - - 0.01 in Snow Light Snow
10:15 PM 33.8 °F 22.5 °F 32.0 °F 93% 30.39 in 2.5 mi NNE 19.6 mph 26.5 mph N/A Snow Light Snow
10:35 PM 33.8 °F 22.2 °F 32.0 °F 93% 30.40 in 4.0 mi NNE 20.7 mph 27.6 mph N/A Snow Light Snow
10:55 PM 33.8 °F 22.8 °F 32.0 °F 93% 30.40 in 10.0 mi NNE 18.4 mph 27.6 mph 0.01 in Snow Light Snow
11:15 PM 33.8 °F 23.2 °F 32.0 °F 93% 30.39 in 9.0 mi NNE 17.3 mph 23.0 mph N/A Snow Light Snow
11:35 PM 35.6 °F 24.2 °F 32.0 °F 87% 30.38 in 10.0 mi NE 21.9 mph 27.6 mph N/A Rain Light Rain
11:55 PM 35.6 °F 25.2 °F 32.0 °F 87% 30.38 in 10.0 mi NE 18.4 mph 27.6 mph 0.01 in Rain Light Rain